Terug naar catalogus

JILIN-01 KUANFU 01C

ActiefWetenschapSSO
NORAD 52443·PAYLOAD·🇨🇳 China

Gelanceerd May 5, 2022 vanaf Taiyuan Satellite Launch Center

Loading…

Volgende Passages (komende 24 uur)

TLE

VersSource: Space-Track

Epoch: Sep 14, 2026, 12:10 UTC

1 52443U 22048A   26257.50741867  .00002075  00000-0  13166-3 0  9998
2 52443  97.5192 333.0287 0018550  18.7839 341.4071 15.09872767240675

Volg JILIN-01 KUANFU 01C in realtime met AllMySat

Download on the App Store